Flag for U.S.A. Weather past 2 weeks in Fort Collins, Colorado, U.S.A.

Now
66 °F

Clear.


Feels Like: 66 °F
Forecast: 62 / 87 °F
Wind: 6 mph from North

Location: Fort Collins-Loveland Municipal Airport

Current Time: Jul 25, 2014 at 3:49:57 AM

Latest Report: Jul 25, 2014 at 3:15 AM


Visibility: 10 mi

Pressure: 30.04 "Hg

Humidity: 64%

Dew point: 54 °F

Location of Fort CollinsLocation

Historic Weather in Fort Collins — Graph

°F

Fort Collins temperature yesterday

Maximum temperature yesterday: 99 °F (at 1:35 PM)
Minimum temperature yesterday: 61 °F (at 2:15 AM)
Average temperature yesterday: 78 °F

Past Weeks' High & Low Weather Summary

 TemperatureHumidityPressure
High99 °F (Jul 20, 2:55 PM)94% (Jul 12, 2:35 AM)30.39 "Hg (Jul 12, 2:35 AM)
Low55 °F (Jul 16, 11:55 PM)14% (Jul 20, 1:55 PM)29.92 "Hg (Jul 10, 5:15 PM)
Average72 °F59%30.13 "Hg
* Reported Jul 10 2:15 AM — Jul 25 2:35 AM, Fort Collins, Weather by CustomWeather, © 2014

Note: Actual official high and low records may vary slightly from our data, if they occured in-between our weather recording intervals... More about our weather records

Advertising

Fort Collins weather history for previous 24 hours

 ConditionsComfort  
Time TempWeatherWind HumidityBarometerVisibility
2:35 AM
Jul 25
64 °FClear.9 mph68%30.04 "Hg10 mi
2:15 AM66 °FClear.No wind64%30.04 "Hg10 mi
1:55 AM68 °FClear.6 mph60%30.04 "Hg10 mi
1:35 AM66 °FClear.6 mph60%30.04 "Hg10 mi
1:15 AM70 °FClear.9 mph53%30.03 "Hg10 mi
12:55 AM70 °FClear.8 mph53%30.04 "Hg10 mi
12:35 AM72 °FClear.7 mph53%30.04 "Hg10 mi
12:15 AM72 °FClear.7 mph53%30.05 "Hg10 mi
11:55 PM
Jul 24
72 °FClear.8 mph53%30.05 "Hg10 mi
11:35 PM73 °FClear.9 mph50%30.05 "Hg10 mi
11:15 PM73 °FClear.10 mph50%30.05 "Hg10 mi
10:55 PM75 °FClear.9 mph47%30.06 "Hg10 mi
10:35 PM75 °FClear.12 mph47%30.06 "Hg10 mi
10:15 PM77 °FClear.16 mph44%30.05 "Hg10 mi
9:55 PM75 °FClear.17 mph50%30.05 "Hg10 mi
9:35 PM75 °FClear.9 mph50%30.05 "Hg10 mi
9:15 PM75 °FSunny.10 mph50%30.05 "Hg10 mi
8:55 PM75 °FSunny.6 mph50%30.04 "Hg10 mi
8:35 PM75 °FSunny.7 mph54%30.03 "Hg10 mi
8:15 PM81 °FSunny.6 mph45%30.02 "Hg10 mi
7:55 PM81 °FSunny.8 mph48%30.00 "Hg10 mi
7:35 PM82 °FSunny.6 mph42%30.00 "Hg10 mi
7:15 PM84 °FSunny.6 mph37%29.99 "Hg6 mi
6:55 PM88 °FSunny.6 mph31%29.98 "Hg10 mi
6:35 PM90 °FSunny.6 mph31%29.98 "Hg10 mi
6:15 PM90 °FSunny.8 mph29%29.98 "Hg10 mi
5:55 PM90 °FSunny.7 mph29%29.98 "Hg10 mi
5:35 PM90 °FSunny.5 mph29%29.99 "Hg7 mi
5:15 PM90 °FSunny.8 mph29%30.00 "Hg10 mi
4:55 PM91 °FSunny.8 mph28%30.01 "Hg10 mi
4:35 PM91 °FSunny.7 mph30%30.02 "Hg10 mi
4:15 PM90 °FSunny.14 mph31%30.03 "Hg10 mi
3:55 PM88 °FSunny.15 mph33%30.04 "Hg10 mi
3:35 PM84 °FPassing clouds.3 mph33%30.04 "Hg10 mi
2:55 PM88 °FThundershowers. Sunny.12 mph29%30.02 "Hg10 mi
2:35 PM93 °FThundershowers. Sunny.17 mph21%30.01 "Hg10 mi
2:15 PM93 °FSunny.8 mph21%30.00 "Hg10 mi
1:55 PM97 °FSunny.6 mph19%30.01 "Hg10 mi
1:35 PM99 °FSunny.3 mph22%30.01 "Hg10 mi
1:15 PM97 °FSunny.10 mph25%30.02 "Hg10 mi
12:55 PM97 °FSunny.8 mph25%30.02 "Hg10 mi
12:35 PM95 °FSunny.7 mph20%30.02 "Hg10 mi
12:15 PM97 °FSunny.No wind20%30.04 "Hg10 mi
11:55 AM93 °FSunny.5 mph24%30.04 "Hg10 mi
11:35 AM91 °FSunny.7 mph26%30.05 "Hg10 mi
11:15 AM91 °FSunny.6 mph26%30.06 "Hg10 mi
10:55 AM90 °FSunny.7 mph26%30.07 "Hg10 mi
10:35 AM88 °FSunny.6 mph33%30.08 "Hg10 mi
10:15 AM84 °FSunny.3 mph37%30.09 "Hg10 mi
9:55 AM82 °FSunny.6 mph37%30.09 "Hg10 mi
9:35 AM81 °FSunny.3 mph39%30.10 "Hg10 mi
9:15 AM79 °FSunny.No wind39%30.10 "Hg10 mi
8:55 AM77 °FSunny.5 mph47%30.11 "Hg10 mi
8:35 AM75 °FSunny.No wind47%30.11 "Hg10 mi
8:15 AM73 °FSunny.No wind50%30.12 "Hg10 mi
7:55 AM72 °FSunny.No wind53%30.12 "Hg10 mi
7:35 AM68 °FSunny.3 mph60%30.12 "Hg10 mi
6:55 AM63 °FSunny.3 mph73%30.13 "Hg10 mi
6:35 AM61 °FClear.No wind77%30.13 "Hg10 mi
6:15 AM61 °FClear.7 mph77%30.12 "Hg10 mi
5:55 AM63 °FClear.3 mph68%30.12 "Hg10 mi
5:35 AM64 °FClear.No wind68%30.12 "Hg10 mi
5:15 AM64 °FClear.5 mph68%30.13 "Hg10 mi
4:55 AM64 °FClear.5 mph68%30.13 "Hg10 mi
4:35 AM63 °FClear.5 mph73%30.13 "Hg10 mi
4:15 AM64 °FClear.6 mph68%30.12 "Hg10 mi
3:55 AM64 °FClear.6 mph64%30.12 "Hg10 mi
3:35 AM64 °FClear.No wind64%30.13 "Hg10 mi
3:15 AM63 °FClear.8 mph68%30.13 "Hg10 mi
Weather by CustomWeather, © 2014

See weather overviewHow to use our weather pages